�N����,����,�~����,�C��,���x,�C��,����,���ϕ���,�ő�u�ԕ���,�ő厞����,���˗�,�I�_���x,�n�����x,�ő啗���N��,DTYPE
"19/09/21","00:10",0.2,17.3,92.8,1014.5,308.3,1.5,3.2,339.2,0.00,16.2,22.2,"00:09:20",1
"19/09/21","00:20",0.0,17.2,93.2,1014.7,311.5,1.8,3.1,327.9,0.00,16.1,22.0,"00:17:04",1
"19/09/21","00:30",0.0,17.2,93.2,1014.9,305.5,1.5,2.5,334.1,0.00,16.1,22.0,"00:21:12",1
"19/09/21","00:40",0.0,17.2,93.5,1014.9,295.3,1.2,2.0,305.2,0.00,16.2,21.9,"00:32:48",1
"19/09/21","00:50",0.2,17.1,93.5,1014.9,317.3,1.8,3.1,340.5,0.00,16.1,21.8,"00:42:48",1
"19/09/21","01:00",0.0,17.0,93.5,1014.5,310.7,1.5,3.1,337.0,0.00,16.0,22.1,"00:53:20",1
"19/09/21","01:10",0.0,17.0,93.7,1014.2,297.9,1.1,2.4,338.9,0.00,16.0,21.8,"01:04:00",1
"19/09/21","01:20",0.2,17.0,93.8,1014.7,264.1,1.1,1.7,259.9,0.00,16.0,21.7,"01:13:28",1
"19/09/21","01:30",0.0,16.9,93.9,1014.2,296.4,1.1,1.7,318.5,0.00,16.0,21.7,"01:20:56",1
"19/09/21","01:40",0.0,16.8,93.9,1014.2,288.4,1.3,2.2,313.9,0.00,15.9,21.8,"01:32:48",1
"19/09/21","01:50",0.0,16.7,94.1,1014.2,296.1,1.5,2.9,324.5,0.00,15.8,21.6,"01:48:48",1
"19/09/21","02:00",0.2,16.5,94.1,1014.0,307.4,2.2,4.4,324.9,0.00,15.6,21.7,"01:59:36",1
"19/09/21","02:10",0.0,16.5,94.3,1014.0,320.2,2.3,4.1,336.9,0.00,15.6,21.7,"02:08:12",1
"19/09/21","02:20",0.0,16.5,94.2,1014.0,321.7,2.5,4.0,313.3,0.00,15.6,21.5,"02:11:32",1
"19/09/21","02:30",0.2,16.7,94.3,1014.2,323.3,2.3,4.3,330.4,0.00,15.8,21.4,"02:26:14",1
"19/09/21","02:40",0.0,16.8,94.2,1013.8,332.3,2.3,3.7,332.9,0.00,15.9,21.4,"02:30:40",1
"19/09/21","02:50",0.2,16.7,94.4,1013.8,333.3,2.1,3.5,353.6,0.00,15.8,21.2,"02:46:48",1
"19/09/21","03:00",0.0,16.7,94.6,1013.5,318.7,2.2,3.7,313.0,0.00,15.9,21.4,"02:52:08",1
"19/09/21","03:10",0.0,16.8,94.5,1013.5,310.1,1.6,3.5,324.1,0.00,16.0,21.0,"03:08:48",1
"19/09/21","03:20",0.2,16.7,94.5,1014.0,330.1,2.6,4.8,338.3,0.00,15.9,21.2,"03:18:50",1
"19/09/21","03:30",0.0,16.8,94.5,1013.8,327.3,2.3,4.0,340.5,0.00,16.0,21.3,"03:20:56",1
"19/09/21","03:40",0.0,16.8,94.7,1013.5,331.9,2.1,4.0,341.2,0.00,16.0,21.0,"03:34:50",1
"19/09/21","03:50",0.2,16.7,94.7,1013.5,317.3,2.0,4.0,331.5,0.00,15.9,20.9,"03:42:24",1
"19/09/21","04:00",0.0,16.7,94.7,1013.5,296.8,1.3,2.9,301.0,0.00,15.9,21.1,"03:55:14",1
"19/09/21","04:10",0.0,16.7,95.0,1013.8,310.8,1.6,2.8,336.5,0.00,15.9,21.0,"04:03:00",1
"19/09/21","04:20",0.2,16.6,94.9,1013.5,321.4,2.1,3.7,327.6,0.00,15.8,20.7,"04:12:32",1
"19/09/21","04:30",0.0,16.6,94.9,1013.5,311.7,2.2,3.7,321.8,0.00,15.8,20.8,"04:29:40",1
"19/09/21","04:40",0.2,16.7,94.9,1013.5,326.6,2.5,4.0,339.2,0.00,15.9,21.0,"04:30:08",1
"19/09/21","04:50",0.0,16.7,95.1,1013.3,313.8,2.1,3.4,324.9,0.00,16.0,21.0,"04:40:48",1
"19/09/21","05:00",0.0,16.8,95.2,1013.3,322.4,2.3,4.1,330.8,0.00,16.1,21.0,"04:55:36",1
"19/09/21","05:10",0.2,16.8,95.2,1013.3,300.8,1.8,3.5,310.8,0.00,16.1,21.0,"05:00:16",1
"19/09/21","05:20",0.0,16.9,95.3,1013.3,309.5,2.0,4.2,328.0,0.00,16.2,20.9,"05:17:10",1
"19/09/21","05:30",0.0,16.8,95.2,1013.0,316.2,2.2,3.9,351.9,0.00,16.1,21.0,"05:21:52",1
"19/09/21","05:40",0.2,16.9,95.3,1013.5,326.7,3.0,4.7,343.0,0.00,16.2,21.0,"05:34:08",1
"19/09/21","05:50",0.0,16.9,95.2,1013.8,327.6,2.7,4.4,325.6,0.00,16.2,20.8,"05:45:12",1
"19/09/21","06:00",0.0,16.9,95.3,1013.5,319.0,2.3,3.7,319.4,0.00,16.2,20.7,"05:56:56",1
"19/09/21","06:10",0.2,16.9,95.4,1013.5,320.4,2.1,3.4,335.8,0.00,16.2,20.9,"06:05:44",1
"19/09/21","06:20",0.0,16.9,95.4,1013.5,318.9,2.2,3.5,321.9,0.00,16.2,21.1,"06:11:12",1
"19/09/21","06:30",0.0,17.0,95.6,1013.5,305.8,1.8,2.9,310.2,0.00,16.3,20.9,"06:24:32",1
"19/09/21","06:40",0.2,16.9,95.5,1014.0,312.6,1.7,3.1,337.2,0.00,16.2,21.0,"06:39:04",1
"19/09/21","06:50",0.0,17.0,95.5,1014.0,327.2,2.8,4.2,309.7,0.00,16.3,20.9,"06:44:16",1
"19/09/21","07:00",0.0,17.0,95.6,1013.8,329.8,2.3,3.7,338.6,0.00,16.3,20.8,"06:57:36",1
"19/09/21","07:10",0.2,17.1,95.5,1014.0,319.6,2.1,3.3,333.2,0.00,16.4,20.9,"07:04:00",1
"19/09/21","07:20",0.0,17.1,95.6,1014.0,314.4,2.2,3.3,332.4,0.00,16.4,20.8,"07:16:48",1
"19/09/21","07:30",0.0,17.2,95.5,1014.5,303.6,1.6,2.9,319.8,0.00,16.5,20.9,"07:22:16",1
"19/09/21","07:40",0.2,17.2,95.7,1014.2,326.7,3.1,4.8,327.7,0.00,16.5,20.8,"07:38:50",1
"19/09/21","07:50",0.0,17.2,95.4,1014.5,319.3,2.5,4.2,338.0,0.00,16.5,20.8,"07:43:52",1
"19/09/21","08:00",0.0,17.2,95.7,1014.5,325.8,2.3,4.0,330.8,0.00,16.5,21.0,"07:50:08",1
"19/09/21","08:10",0.2,17.4,95.7,1014.5,321.9,2.0,3.3,325.5,0.00,16.7,20.9,"08:01:52",1
"19/09/21","08:20",0.0,17.4,95.7,1014.5,321.6,1.6,2.5,311.3,0.00,16.7,21.0,"08:16:24",1
"19/09/21","08:30",0.0,17.4,95.7,1014.7,319.9,2.0,4.0,323.4,0.00,16.7,20.7,"08:26:24",1
"19/09/21","08:40",0.2,17.5,95.6,1014.9,307.4,1.2,2.8,346.0,0.00,16.8,20.9,"08:39:44",1
"19/09/21","08:50",0.0,17.4,95.8,1014.9,314.5,1.8,2.6,331.6,0.00,16.8,21.0,"08:45:04",1
"19/09/21","09:00",0.0,17.5,95.7,1015.2,314.7,1.5,3.1,349.6,0.00,16.8,20.9,"08:59:44",1
"19/09/21","09:10",0.2,17.5,95.7,1015.2,319.5,1.6,3.2,339.8,0.00,16.8,20.8,"09:07:54",1
"19/09/21","09:20",0.0,17.5,96.0,1014.9,316.6,1.6,2.9,333.3,0.00,16.9,20.9,"09:19:28",1
"19/09/21","09:30",0.2,17.6,96.0,1015.2,300.3,1.1,1.9,331.6,0.00,17.0,21.0,"09:20:08",1
"19/09/21","09:40",0.0,17.6,95.9,1015.2,306.4,1.3,2.7,321.5,0.00,17.0,20.9,"09:33:20",1
"19/09/21","09:50",0.0,17.6,95.8,1014.9,306.6,1.5,2.9,328.5,0.01,17.0,21.1,"09:47:20",1
"19/09/21","10:00",0.2,17.8,95.9,1014.9,284.3,1.3,3.1,321.5,0.01,17.2,21.0,"09:51:04",1
"19/09/21","10:10",0.0,17.9,96.1,1014.9,303.4,1.5,2.5,310.4,0.02,17.3,20.9,"10:05:28",1
"19/09/21","10:20",0.2,18.2,96.3,1014.7,287.7,1.1,1.9,320.0,0.03,17.6,21.2,"10:15:04",1
"19/09/21","10:30",0.0,18.5,95.9,1014.5,284.0,1.2,1.9,262.2,0.06,17.9,20.9,"10:26:08",1
"19/09/21","10:40",0.2,18.6,96.0,1014.5,274.1,1.3,1.9,272.6,0.04,18.0,21.1,"10:32:24",1
"19/09/21","10:50",0.0,18.9,96.0,1014.7,278.7,1.1,1.7,245.1,0.03,18.3,21.2,"10:45:12",1
"19/09/21","11:00",0.0,19.2,96.0,1014.7,289.8,0.8,1.4,319.9,0.03,18.6,21.1,"10:59:36",1
"19/09/21","11:10",0.2,19.4,95.7,1014.9,289.8,0.7,1.3,262.3,0.03,18.7,21.4,"11:04:16",1
"19/09/21","11:20",0.0,19.4,95.6,1014.2,307.3,0.6,1.3,310.0,0.02,18.7,21.3,"11:10:48",1
"19/09/21","11:30",0.2,19.6,95.7,1014.2,258.4,0.2,0.6,291.5,0.04,18.9,21.4,"11:20:02",1
"19/09/21","11:40",0.0,19.7,95.4,1014.5,300.2,0.8,1.7,320.1,0.05,19.0,21.5,"11:38:24",1
"19/09/21","11:50",0.2,19.7,95.5,1014.5,275.2,0.8,1.7,303.2,0.04,19.0,21.4,"11:41:20",1
"19/09/21","12:00",0.0,19.7,95.4,1014.2,268.3,0.6,1.1,244.1,0.04,19.0,21.7,"11:50:32",1
"19/09/21","12:10",0.0,19.6,95.2,1014.5,279.0,0.7,1.4,265.6,0.03,18.9,21.6,"12:01:20",1
"19/09/21","12:20",0.2,19.5,95.4,1014.0,248.6,1.0,2.0,235.2,0.02,18.8,21.4,"12:15:36",1
"19/09/21","12:30",0.0,19.7,95.6,1014.0,305.7,0.6,1.3,340.3,0.01,19.0,21.7,"12:27:28",1
"19/09/21","12:40",0.2,19.9,95.7,1014.2,313.2,0.7,1.2,334.8,0.02,19.2,21.6,"12:34:48",1
"19/09/21","12:50",0.0,20.0,95.4,1014.0,270.1,0.8,1.3,329.3,0.03,19.3,21.8,"12:40:48",1
"19/09/21","13:00",0.0,19.9,95.5,1014.2,267.1,0.7,1.1,291.6,0.03,19.2,21.8,"12:55:12",1
"19/09/21","13:10",0.2,20.0,95.7,1014.0,260.2,0.7,1.3,241.5,0.03,19.3,21.6,"13:03:04",1
"19/09/21","13:20",0.0,20.1,95.8,1013.8,277.2,0.5,1.2,257.2,0.04,19.4,21.8,"13:12:40",1
"19/09/21","13:30",0.2,20.1,95.3,1014.2,272.8,0.7,1.3,253.4,0.02,19.4,21.7,"13:27:12",1
"19/09/21","13:40",0.0,19.9,95.5,1013.5,278.6,0.7,1.4,239.6,0.01,19.2,22.1,"13:34:40",1
"19/09/21","13:50",0.0,20.0,95.5,1013.0,257.9,0.8,1.4,319.1,0.01,19.3,22.0,"13:41:36",1
"19/09/21","14:00",0.2,20.1,95.7,1012.8,268.4,0.7,1.3,229.9,0.02,19.4,22.0,"13:58:00",1
"19/09/21","14:10",0.0,20.1,95.6,1012.6,270.5,0.7,1.4,266.9,0.03,19.4,21.9,"14:03:12",1
"19/09/21","14:20",0.0,20.1,95.3,1012.8,267.7,0.8,1.6,262.2,0.04,19.4,22.0,"14:10:16",1
"19/09/21","14:30",0.2,20.5,95.2,1012.6,281.0,0.6,1.2,335.7,0.06,19.7,22.1,"14:22:40",1
"19/09/21","14:40",0.0,20.5,95.4,1012.1,243.2,1.1,2.1,237.6,0.07,19.8,22.0,"14:34:32",1
"19/09/21","14:50",0.0,20.5,94.6,1012.3,289.3,1.0,2.0,318.6,0.03,19.6,21.9,"14:49:36",1
"19/09/21","15:00",0.2,20.4,94.8,1012.6,307.2,1.1,2.0,310.9,0.01,19.6,22.0,"14:59:28",1
"19/09/21","15:10",0.0,20.5,94.9,1012.8,290.4,0.8,1.4,326.8,0.01,19.7,22.2,"15:02:08",1
"19/09/21","15:20",0.2,20.5,94.8,1012.6,302.7,0.7,1.6,328.3,0.02,19.7,22.3,"15:13:44",1
"19/09/21","15:30",0.0,20.5,94.8,1012.6,314.5,1.0,1.8,340.4,0.02,19.7,22.2,"15:21:36",1
"19/09/21","15:40",0.0,20.6,94.7,1012.3,299.5,1.0,1.3,328.8,0.04,19.8,22.2,"15:33:28",1
"19/09/21","15:50",0.0,20.7,94.7,1012.6,287.9,0.7,1.3,306.2,0.03,19.9,22.2,"15:40:08",1
"19/09/21","16:00",0.2,20.6,94.2,1012.6,306.9,1.0,1.4,324.1,0.01,19.7,22.2,"15:57:36",1
"19/09/21","16:10",0.0,20.7,94.6,1012.3,307.8,1.0,1.8,320.4,0.01,19.8,22.3,"16:07:52",1
"19/09/21","16:20",0.0,20.8,94.6,1012.3,305.6,1.0,1.3,321.8,0.01,19.9,22.4,"16:14:40",1
"19/09/21","16:30",0.2,20.8,94.6,1012.6,294.3,0.8,1.3,326.1,0.01,19.9,22.4,"16:20:08",1
"19/09/21","16:40",0.0,20.8,94.2,1012.3,320.8,1.1,1.7,325.9,0.04,19.9,22.3,"16:36:40",1
"19/09/21","16:50",0.0,20.8,94.1,1012.3,291.5,1.1,1.9,326.2,0.02,19.9,22.4,"16:44:24",1
"19/09/21","17:00",0.2,20.7,94.0,1012.1,272.1,0.8,1.4,265.0,0.00,19.7,22.5,"16:50:24",1
"19/09/21","17:10",0.0,20.7,94.0,1011.9,290.8,0.8,1.3,301.7,0.00,19.7,22.2,"17:03:20",1
"19/09/21","17:20",0.0,20.7,94.2,1011.9,299.1,1.0,1.4,322.8,0.00,19.8,22.2,"17:19:52",1
"19/09/21","17:30",0.2,20.7,94.3,1012.1,313.6,1.2,2.4,321.8,0.00,19.8,22.4,"17:27:20",1
"19/09/21","17:40",0.0,20.7,94.4,1011.9,294.2,1.0,1.2,323.5,0.00,19.8,22.3,"17:36:32",1
"19/09/21","17:50",0.0,20.6,94.0,1012.1,290.0,1.1,2.2,333.6,0.00,19.6,22.5,"17:41:04",1
"19/09/21","18:00",0.0,20.4,94.0,1012.3,299.1,1.0,1.4,246.1,0.00,19.4,22.3,"17:50:40",1
"19/09/21","18:10",0.2,20.3,94.2,1012.3,303.0,0.8,1.7,302.7,0.00,19.4,22.4,"18:05:20",1
"19/09/21","18:20",0.0,20.3,94.1,1012.3,324.8,1.2,1.8,320.3,0.00,19.4,22.2,"18:18:00",1
"19/09/21","18:30",0.0,20.3,94.2,1012.8,302.3,0.8,1.2,342.2,0.00,19.4,22.4,"18:20:48",1
"19/09/21","18:40",0.2,20.2,94.3,1012.8,308.9,1.1,2.1,339.6,0.00,19.3,22.4,"18:34:48",1
"19/09/21","18:50",0.0,20.2,94.3,1012.8,305.2,1.1,1.8,313.3,0.00,19.3,22.2,"18:40:02",1
"19/09/21","19:00",0.0,20.1,94.3,1012.8,303.9,1.0,1.8,319.4,0.00,19.2,22.1,"18:50:16",1
"19/09/21","19:10",0.0,20.2,94.4,1012.8,297.6,0.6,1.3,333.8,0.00,19.3,22.2,"19:00:16",1
"19/09/21","19:20",0.0,20.2,94.5,1013.0,322.4,1.1,1.8,319.9,0.00,19.3,22.3,"19:19:52",1
"19/09/21","19:30",0.2,20.1,94.6,1013.0,286.3,0.7,1.7,323.5,0.00,19.2,22.4,"19:20:08",1
"19/09/21","19:40",0.0,20.0,94.5,1013.3,292.8,1.0,1.4,330.8,0.00,19.1,22.2,"19:37:20",1
"19/09/21","19:50",0.0,20.1,94.5,1013.5,312.7,1.1,2.1,323.3,0.00,19.2,22.3,"19:49:12",1
"19/09/21","20:00",0.0,20.1,94.5,1014.0,283.7,0.6,1.1,315.6,0.00,19.2,22.0,"19:50:16",1
"19/09/21","20:10",0.2,20.1,94.6,1014.0,292.3,0.7,1.1,312.1,0.00,19.2,22.3,"20:03:04",1
"19/09/21","20:20",0.0,20.0,94.6,1013.8,292.2,0.8,1.4,326.1,0.00,19.1,22.3,"20:14:32",1
"19/09/21","20:30",0.0,20.0,94.6,1013.8,294.8,1.0,1.8,327.8,0.00,19.1,22.2,"20:29:36",1
"19/09/21","20:40",0.0,20.0,94.7,1013.8,292.6,0.7,1.2,310.1,0.00,19.2,22.0,"20:32:48",1
"19/09/21","20:50",0.2,20.1,94.7,1014.0,299.6,1.0,1.6,329.3,0.00,19.3,22.0,"20:42:24",1
"19/09/21","21:00",0.0,20.0,94.6,1014.0,315.5,0.7,1.4,320.3,0.00,19.1,22.0,"20:55:36",1
"19/09/21","21:10",0.0,20.0,94.8,1014.2,294.2,1.0,1.6,315.9,0.00,19.2,22.1,"21:08:16",1
"19/09/21","21:20",0.0,20.0,94.8,1013.8,309.3,0.8,1.4,312.1,0.00,19.2,22.1,"21:16:08",1
"19/09/21","21:30",0.0,20.0,94.8,1014.0,302.3,0.7,1.2,341.6,0.00,19.2,22.0,"21:20:16",1
"19/09/21","21:40",0.2,20.0,94.8,1014.2,286.8,1.0,1.7,328.8,0.00,19.2,22.2,"21:32:56",1
"19/09/21","21:50",0.0,20.0,94.9,1013.8,304.1,0.7,1.6,306.2,0.00,19.2,22.2,"21:41:36",1
"19/09/21","22:00",0.0,20.1,94.9,1014.0,321.1,1.0,2.1,339.3,0.00,19.3,22.1,"21:57:44",1
"19/09/21","22:10",0.0,20.1,94.9,1013.5,299.4,0.8,1.4,335.2,0.00,19.3,21.8,"22:00:40",1
"19/09/21","22:20",0.0,20.1,94.8,1013.8,311.5,1.0,1.3,317.8,0.00,19.3,22.1,"22:13:44",1
"19/09/21","22:30",0.2,20.2,95.0,1013.5,306.1,0.8,1.4,319.7,0.00,19.4,22.1,"22:22:16",1
"19/09/21","22:40",0.0,20.1,94.9,1013.8,306.8,1.2,2.5,329.4,0.00,19.3,21.9,"22:33:44",1
"19/09/21","22:50",0.0,20.2,94.9,1013.3,310.2,0.5,1.2,319.5,0.00,19.4,22.1,"22:42:24",1
"19/09/21","23:00",0.0,20.3,94.9,1013.3,310.3,1.0,1.4,320.0,0.00,19.5,21.8,"22:52:48",1
"19/09/21","23:10",0.2,20.2,94.9,1013.3,313.5,1.1,1.6,320.1,0.00,19.4,21.9,"23:00:16",1
"19/09/21","23:20",0.0,20.1,94.9,1013.0,287.6,0.8,1.6,317.0,0.00,19.3,21.9,"23:11:04",1
"19/09/21","23:30",0.0,20.2,95.0,1013.0,300.9,1.1,1.7,327.0,0.00,19.4,21.8,"23:20:16",1
"19/09/21","23:40",0.0,20.2,94.9,1013.3,297.1,1.0,1.6,310.5,0.00,19.4,21.9,"23:38:00",1
"19/09/21","23:50",0.0,20.2,94.9,1013.0,297.6,0.7,1.3,314.2,0.00,19.4,21.9,"23:49:28",1
"19/09/21","24:00",0.0,20.3,95.0,1012.8,294.2,1.0,1.3,315.1,0.00,19.5,21.9,"23:58:32",1
